Regional Weather Roundup
Issued by NWS

Home | Current Version | Previous Version | Text Only | Print | Product List | Glossary On
Versions: 1 2 3 4 5 6 7 8 9 10 11 12 13 14 15 16 17 18 19 20 21 22 23 24 25 26 27 28 29 30 31 32 33 34 35 36 37 38 39 40 41 42 43 44 45 46 47 48 49 50
000
ASUS44 KFWD 242003
RWRTX
NORTH TEXAS HOURLY WEATHER ROUNDUP
NATIONAL WEATHER SERVICE FORT WORTH TX
300 PM CDT FRI MAR 24 2017

NOTE: "FAIR" INDICATES FEW OR NO CLOUDS BELOW 12,000 FEET WITH NO
SIGNIFICANT WEATHER AND/OR OBSTRUCTIONS TO VISIBILITY.

TXZ118-119-242100-
DALLAS/FORT WORTH METROPLEX

CITY           SKY/WX    TMP DP  RH WIND       PRES   REMARKS
DFW AIRPORT    MOSUNNY   73  55  53 S22       29.77F
DALLAS LOVE    MOSUNNY   68  57  68 S15       29.81F
FTW MEACHAM    SUNNY     77  52  41 S21G26    29.77F
DAL-EXECUTIVE  MOSUNNY   68  59  73 S9        29.82F
FTW-ALLIANCE   MOSUNNY   76  56  49 S16G25    29.77F
FTW-SPINKS     SUNNY     75  52  43 S15G23    29.81F
ARLINGTON      SUNNY     70  54  56 S16G23    29.80F
GRAND PRAIRIE  SUNNY     70  54  56 S13G21    29.82F
ADDISON        MOSUNNY   68  55  64 S13       29.81F
MESQUITE       MOSUNNY   63  59  88 S10       29.85F
LANCASTER      MOSUNNY   65  59  79 S13       29.85F
$$

TXZ091>094-102>105-117-120-121-131>134-242100-
NORTH CENTRAL TEXAS

CITY           SKY/WX    TMP DP  RH WIND       PRES   REMARKS
SHRMAN/DENISON SUNNY     69  48  47 S16       29.80F
GAINESVILLE    SUNNY     73  48  41 S21G26    29.78F
BOWIE          SUNNY     82  26  12 SW21G37   29.74F
BRIDGEPORT     SUNNY     81  32  16 SW22G28   29.77F
DECATUR        SUNNY     79  37  22 S23G29    29.76F
DENTON         SUNNY     74  55  51 S20G26    29.77F
MCKINNEY       MOSUNNY   65  56  72 SE12      29.80F
BONHAM         PTSUNNY   61  54  77 S18       29.81F
ROCKWALL       PTSUNNY   64  60  87 S18       29.85F
TERRELL        CLOUDY    58  55  90 SE7       29.84F
WAXAHACHIE     PTSUNNY   66  58  76 S13       29.86F
CLEBURNE       SUNNY     72  57  60 S20       29.82F
GRANBURY       SUNNY     81  39  22 S20G29    29.80F
$$

TXZ083>090-098>101-113>116-127>130-139>142-154-155-242100-
WESTERN NORTH TEXAS

CITY           SKY/WX    TMP DP  RH WIND       PRES   REMARKS
WICHITA FALLS  MOSUNNY   77  29  17 SW31G41   29.71F
WF-KICKAPOO    SUNNY     76  29  17 SW16G31   29.74F
VERNON         CLOUDY    75  19  12 W30G41    29.69F
ABILENE        SUNNY     75  29  18 SW25G37   29.83F
ABILENE-DYESS  SUNNY     75  34  22 W29G38    29.83F
GRAHAM         SUNNY     78  34  20 SW20G32   29.76F
BRECKENRIDGE   SUNNY     80  28  15 SW23G33   29.79F
CISCO          SUNNY     77  30  18 W32G40    29.82F
RANGER         SUNNY     77  32  19 SW20G31   29.82F
MINERAL WELLS  SUNNY     82  25  12 SW25G36   29.76F
STEPHENVILLE   SUNNY     80  28  14 SW20G30   29.84F
COMANCHE       SUNNY     78  35  20 W24G30    29.84S
BROWNWOOD      SUNNY     77  30  18 SW21G32   29.85F
COLEMAN        SUNNY     77  29  17 W26G38    29.87S
$$

TXZ143>147-156>162-174-175-242100-
CENTRAL TEXAS

CITY           SKY/WX    TMP DP  RH WIND       PRES   REMARKS
WACO           MOSUNNY   71  59  65 S13       29.86F
WACO-TSTC      MOSUNNY   70  57  64 S7        29.97R
WACO-MCGREGOR  SUNNY     74  57  55 S12       29.86F
HILLSBORO      SUNNY     69  58  66 S16       29.86F
CORSICANA      CLOUDY    61  60  97 S10       29.89F
MEXIA          LGT RAIN  61  58  91 SW6       29.88F
HEARNE         CLOUDY    74  70  88 S15G21    29.91F
CAMERON        PTSUNNY   77  68  72 S22       29.88F
TEMPLE         MOSUNNY   73  60  63 S13       29.88F
KILLEEN        MOSUNNY   77  44  29 SW8G17    29.86F
KILLEEN-SKYLRK SUNNY     79  46  31 S14       29.87F
FORT HOOD      SUNNY     79  43  28 SW12      29.84F
GATESVILLE     SUNNY     79  45  29 SW8       29.88F
HAMILTON       SUNNY     80  39  22 S20G25    29.84F
LAMPASAS       SUNNY     77  47  35 SW14G21   29.88F
$$

TXZ095>097-106>112-122>126-135>138-148>153-164>167-242100-
EAST TEXAS

CITY           SKY/WX    TMP DP  RH WIND       PRES   REMARKS
PARIS          CLOUDY    55  52  88 S10       29.87F
SULPHUR SPRNGS LGT RAIN  56  56  99 S6        29.90F
MOUNT PLEASANT CLOUDY    64  58  81 W18       29.90R
GILMER         TSTM      75  58  54 S9G21     29.87S
MINEOLA        LGT RAIN  54  54 100 W3        29.91S FOG
TYLER          HVY RAIN  58  58 100 W9G20     29.91R FOG
LONGVIEW       PTSUNNY   79  59  50 SE35G48   29.85F
MARSHALL       MOSUNNY   79  58  48 SE13G28   29.90F
ATHENS         LGT RAIN  55  55 100 CALM      29.89F
PALESTINE      HVY RAIN  68  65  91 SW16G29   29.91R
JACKSONVILLE   CLOUDY    75  60  60 S21G29    29.90F
HENDERSON      PTSUNNY   78  56  48 SE21G32   29.87F
CENTER         PTCLDY    83  61  47 S21G32    29.96F
NACOGDOCHES    MOSUNNY  N/A N/A N/A S23G33    29.89F
$$

SUPPLEMENTAL OBSERVATIONS (CENTRAL)

CITY           SKY/WX    TMP DP  RH WIND       PRES   REMARKS
$$

SUPPLEMENTAL OBSERVATIONS (WEST)

CITY           SKY/WX    TMP DP  RH WIND       PRES   REMARKS
$$

SUPPLEMENTAL OBSERVATIONS (EAST)

CITY           SKY/WX    TMP DP  RH WIND       PRES   REMARKS
$$

SUPPLEMENTAL OBSERVATIONS ARE A COLLECTION OF AUTOMATED INSTRUMENTS
THAT ARE MAINTAINED BY A VARIETY OF FEDERAL AND STATE AGENCIES.
CERTAIN ELEMENTS...SUCH AS HUMIDITY VALUES AND SUSTAINED WIND
SPEEDS...MAY BE APPROXIMATED.




USA.gov is the U.S. government's official web portal to all federal, state and local government web resources and services.